[[{"header":{"parameterUnit":"m.s-1","parameterCategory":1,"la1":30.2991,"la2":30.254,"lo1":-89.0895,"lo2":-89.0444,"dy":0.0017,"dx":0.0017,"nx":28,"ny":28,"refTime":"2024-02-23T03:00:00:Z","depth":0,"parameterNumber":2,"parameterNumberName":"U-component_of_WINDS"},"data":[0,0,0,0,0,0,0,0,0,0,0,0,0,0,0,0,0,0,0,0,0,0,0,0,0,0,0,0,0,0,0,0,0,0,0,0,0,0,0,0,0,0,0,0,0,0,0,0,0,0,0,0,0,0,0,0,0,0,2.9317,2.9317,0,2.9374,2.9374,2.9375,2.9343,2.9342,2.934,2.9339,2.9405,2.9409,2.9412,0,0,0,0,0,0,0,0,0,0,0,0,0,2.9189,2.9191,2.9316,2.9317,2.9318,2.9374,2.9374,2.9375,2.9344,2.9342,2.934,2.9338,2.9404,2.9408,2.9412,0,0,0,0,0,0,0,0,0,0,0,0,0,2.9245,2.9192,2.9316,2.9309,2.9308,2.9373,2.9374,2.9375,2.9344,2.9342,2.9339,2.9337,2.9403,2.9408,2.9413,2.9491,0,0,2.9428,2.943,0,0,0,0,0,0,0,0,2.9242,2.925,2.9309,2.9309,2.9309,2.9349,2.9354,2.9415,2.9345,2.9331,2.9338,2.9336,2.9389,2.9395,2.9411,2.9494,2.9497,2.9428,2.9431,2.9433,2.9435,0,0,0,0,0,0,0,2.9238,2.9247,2.9339,2.931,2.931,2.9305,2.9311,2.9365,2.9373,2.9332,2.933,2.9336,2.9389,2.9407,2.9413,2.9498,2.9428,2.9432,2.9435,2.9437,2.9652,2.9655,0,0,0,0,0,0,2.9234,2.9244,2.9338,2.9341,2.9269,2.931,2.9315,2.9339,2.9372,2.9375,2.9338,2.9335,2.9399,2.9407,2.9415,2.9511,2.9433,2.9438,2.9441,2.965,2.9653,2.9656,0,0,0,0,0,0,2.9231,2.9242,2.9335,2.9292,2.9304,2.9314,2.9341,2.9341,2.9359,2.9377,2.9379,2.9355,2.9398,2.9408,2.9473,2.9513,2.944,2.9444,2.9646,2.9651,2.9655,2.9703,0,0,0,0,0,0,2.9227,2.9241,2.9269,2.9293,2.9306,2.9389,2.9343,2.9344,2.9366,2.9362,2.9393,2.9396,2.9397,2.9465,2.9477,2.9518,2.9448,2.9643,2.9648,2.9653,2.9698,2.9709,2.9717,0,0,0,0,0,2.9223,2.9281,2.927,2.9282,2.934,2.9391,2.9399,2.9397,2.9369,2.9399,2.9411,2.9395,2.9506,2.9472,2.9486,2.9529,2.964,2.9647,2.9653,2.9694,2.9707,2.9717,0,0,0,0,0,0,2.9264,2.9284,2.9272,2.9339,2.9364,2.9386,2.9423,2.941,2.9444,2.9439,2.9437,2.9445,2.9513,2.9527,2.9489,2.9608,2.957,2.9579,2.9596,2.9609,2.9618,2.9614,2.9452,0,0,0,0,0,2.928,2.9318,2.9334,2.9392,2.9405,2.9412,2.9434,2.943,2.9456,2.9467,2.9484,2.9513,2.9555,2.9582,2.9621,2.97,2.9708,2.9737,2.9746,2.9754,2.9763,2.9809,2.9823,2.9677,2.9677,2.9676,0,0,2.9316,2.9331,2.9355,2.9401,2.9419,2.9461,2.9421,2.9466,2.9498,2.9475,2.9537,2.9551,2.9583,2.9656,2.9689,2.967,2.9805,2.9762,2.9768,2.9773,2.9817,2.9831,2.9843,2.9681,2.968,2.9679,0,0,2.9401,2.9415,2.9466,2.9485,2.9513,2.9518,2.953,2.9555,2.9563,2.9624,2.9608,2.9648,2.9719,2.9744,2.9765,2.9863,2.9851,2.9876,2.9928,2.9973,2.9984,2.9994,3.0032,3.0045,2.9885,2.9885,2.9885,0,2.9442,2.9501,2.9495,2.9542,2.9564,2.9543,2.9597,2.9617,2.9657,2.9675,2.9652,2.9743,2.9763,2.9843,2.9867,2.9884,2.9901,2.9873,2.9982,2.9993,3.0002,3.0038,3.0052,2.9888,2.9887,2.9887,2.9887,0,2.9552,2.9594,2.9632,2.967,2.9696,2.9747,2.9751,2.978,2.9774,2.9782,2.9848,2.9871,2.9916,2.9934,2.993,3.0015,3.0003,2.9982,2.9943,3.0019,3.0053,3.0067,2.9892,2.9891,2.989,2.9889,0,0,2.9664,2.9698,2.9713,2.9731,2.9761,2.9795,2.9846,2.9888,2.9914,2.9943,2.9988,3.005,3.0031,3.0056,3.0055,3.0094,3.0174,3.0069,3.007,3.009,3.0273,3.029,3.0305,3.0165,3.0168,3.017,3.0271,0,2.9753,2.9839,2.9836,2.9918,2.9959,2.9941,2.9986,3.0012,3.0022,3.0061,3.0072,3.0117,3.0087,3.0103,3.0141,3.0156,3.0211,3.0148,3.0211,3.0213,3.0205,3.0323,3.034,3.0434,3.0284,3.0286,3.0288,0,2.9868,2.99,2.9986,3.0012,3.0029,3.0069,3.0109,3.0145,3.0176,3.018,3.0209,3.0202,3.0258,3.0217,3.0296,3.0254,3.028,3.0292,3.0295,3.0302,3.0256,3.0335,3.0464,3.0479,3.0308,3.0306,3.0305,0,2.9945,3.0009,3.0069,3.0085,3.0117,3.0146,3.0161,3.0189,3.0215,3.0251,3.0269,3.0312,3.0336,3.0371,3.0377,3.0346,3.0458,3.0417,3.0467,3.0467,3.0492,3.0491,3.0629,3.0506,3.0506,3.0505,3.0505,0,3.0045,3.0099,3.0104,3.0141,3.0202,3.02,3.0262,3.0275,3.03,3.0342,3.033,3.0371,3.0375,3.0419,3.0425,3.0491,3.0502,3.051,3.0511,3.0512,3.0512,3.053,3.0525,3.0509,3.0508,3.0508,3.0507,0,3.0141,3.0146,3.0211,3.0236,3.0244,3.0288,3.0311,3.0349,3.0357,3.0411,3.0424,3.0439,3.049,3.0499,3.0559,3.0563,3.0644,3.0638,3.0633,3.0633,3.0684,3.068,3.084,3.0862,3.0723,3.0724,3.0725,0,3.0206,3.0246,3.0276,3.0302,3.0318,3.0361,3.0388,3.0388,3.0417,3.0456,3.049,3.0539,3.0578,3.066,3.0679,3.0726,3.0722,3.0775,3.0729,3.073,3.0726,3.0724,3.073,3.0785,3.0786,3.0787,3.0788,0,3.0321,3.0322,3.0359,3.0399,3.043,3.0462,3.0492,3.0515,3.052,3.0554,3.0605,3.0635,3.0696,3.0746,3.0793,3.0813,3.0804,3.0803,3.0817,3.0819,3.0816,3.0821,3.0659,3.0799,3.0798,3.0797,3.0797,3.0796,3.0405,3.0441,3.0468,3.0511,3.0534,3.0563,3.06,3.0613,3.0654,3.0702,3.0701,3.0758,3.0791,3.0853,3.0875,3.0922,3.0906,3.0926,3.0932,3.0937,3.0943,3.0807,3.0931,3.093,3.093,3.093,3.093,0,3.0521,3.0538,3.0577,3.0619,3.0655,3.0639,3.0673,3.0704,3.0753,3.0783,3.0822,3.0882,3.0931,3.0954,3.1003,3.1036,3.1034,3.105,3.1048,3.1054,3.0954,3.0937,3.1051,3.1051,3.1051,3.1051,3.1051,3.1051,3.0586,3.0648,3.0652,3.0727,3.0744,3.0797,3.0818,3.0846,3.087,3.0937,3.0977,3.0991,3.102,3.1071,3.1117,3.1123,3.1143,3.1162,3.1166,3.1073,3.106,3.1049,3.1033,3.1166,3.1166,3.1263,3.1264,3.1264]},{"header":{"parameterUnit":"m.s-1","parameterCategory":1,"la1":30.2991,"la2":30.254,"lo1":-89.0895,"lo2":-89.0444,"dy":0.0017,"dx":0.0017,"nx":28,"ny":28,"refTime":"2024-02-23T03:00:00:Z","depth":0,"parameterNumber":3,"parameterNumberName":"V-component_of_WINDS"},"data":[0,0,0,0,0,0,0,0,0,0,0,0,0,0,0,0,0,0,0,0,0,0,0,0,0,0,0,0,0,0,0,0,0,0,0,0,0,0,0,0,0,0,0,0,0,0,0,0,0,0,0,0,0,0,0,0,0,0,1.8705,1.8706,0,1.8789,1.879,1.8791,1.8805,1.8805,1.8804,1.8803,1.8892,1.8895,1.8898,0,0,0,0,0,0,0,0,0,0,0,0,0,1.8559,1.8561,1.8705,1.8706,1.8707,1.8789,1.879,1.8791,1.8805,1.8805,1.8804,1.8803,1.8891,1.8894,1.8898,0,0,0,0,0,0,0,0,0,0,0,0,0,1.863,1.8562,1.8704,1.8724,1.8726,1.8789,1.879,1.8791,1.8806,1.8805,1.8803,1.8802,1.8889,1.8894,1.8898,1.8948,0,0,1.8912,1.8914,0,0,0,0,0,0,0,0,1.8626,1.8636,1.872,1.8722,1.8725,1.8785,1.8771,1.8844,1.8806,1.8776,1.8803,1.8802,1.8857,1.8864,1.8883,1.8952,1.8956,1.8913,1.8915,1.8917,1.8919,0,0,0,0,0,0,0,1.8621,1.8632,1.8738,1.8721,1.8724,1.8729,1.8738,1.8785,1.8822,1.8778,1.8779,1.8789,1.8859,1.8878,1.8885,1.8957,1.8913,1.8917,1.8919,1.8921,1.9074,1.9075,0,0,0,0,0,0,1.8613,1.8628,1.8735,1.8741,1.8672,1.8733,1.8743,1.8767,1.8821,1.8828,1.879,1.8789,1.8871,1.888,1.8888,1.8951,1.8917,1.8922,1.8924,1.9072,1.9074,1.9075,0,0,0,0,0,0,1.8609,1.8622,1.8732,1.8685,1.8699,1.8736,1.8764,1.877,1.8789,1.883,1.8837,1.8803,1.8871,1.8882,1.8933,1.8954,1.8924,1.8928,1.9071,1.9073,1.9075,1.9077,0,0,0,0,0,0,1.8605,1.8621,1.8639,1.8685,1.8701,1.8775,1.8765,1.8772,1.8797,1.8797,1.8844,1.8851,1.8871,1.8926,1.8938,1.896,1.8931,1.9069,1.9072,1.9074,1.9075,1.9079,1.9082,0,0,0,0,0,1.86,1.8637,1.864,1.8653,1.8725,1.8776,1.8786,1.8807,1.8798,1.8818,1.8844,1.8849,1.895,1.8932,1.8944,1.8969,1.9068,1.9071,1.9074,1.9074,1.9078,1.9082,0,0,0,0,0,0,1.8593,1.8643,1.8647,1.87,1.8734,1.8778,1.8804,1.8811,1.8848,1.8847,1.8872,1.8883,1.8933,1.8956,1.8935,1.902,1.9008,1.9014,1.9004,1.9008,1.9012,1.9006,1.8935,0,0,0,0,0,1.8597,1.8634,1.8676,1.8718,1.8735,1.8766,1.8789,1.8803,1.8839,1.8853,1.8883,1.8919,1.8959,1.8985,1.9023,1.9078,1.909,1.9101,1.9104,1.9107,1.9112,1.9144,1.9151,1.9085,1.9085,1.9085,0,0,1.8607,1.8639,1.8661,1.8718,1.8745,1.8783,1.8778,1.8818,1.8847,1.886,1.8911,1.8934,1.8975,1.9029,1.9054,1.905,1.9132,1.9111,1.9112,1.9116,1.9148,1.9154,1.916,1.9087,1.9087,1.9086,0,0,1.8645,1.8672,1.8711,1.8739,1.8781,1.8802,1.8811,1.8855,1.8871,1.8922,1.8933,1.8968,1.9035,1.9065,1.9089,1.9139,1.9146,1.9151,1.9169,1.92,1.9205,1.921,1.923,1.9236,1.9155,1.9155,1.9156,0,1.8653,1.871,1.873,1.8771,1.8796,1.8808,1.8849,1.8875,1.8928,1.8946,1.8939,1.9025,1.9054,1.9116,1.9128,1.9146,1.9159,1.9146,1.9203,1.9208,1.9212,1.9231,1.9238,1.9156,1.9156,1.9156,1.9156,0,1.8717,1.8757,1.8783,1.8834,1.8862,1.8902,1.893,1.8956,1.8967,1.8989,1.9042,1.9077,1.9124,1.9139,1.915,1.9203,1.9199,1.9197,1.9186,1.9219,1.9237,1.9244,1.9157,1.9156,1.9156,1.9156,0,0,1.8754,1.8815,1.8825,1.8848,1.8896,1.8927,1.8968,1.9014,1.9037,1.9072,1.9109,1.9166,1.9165,1.9192,1.9207,1.9234,1.9274,1.9229,1.9231,1.9238,1.9336,1.9338,1.9346,1.9278,1.9279,1.928,1.9333,0,1.8798,1.8871,1.8892,1.8954,1.8992,1.9005,1.9041,1.9074,1.9096,1.9132,1.9156,1.9197,1.9192,1.9208,1.9236,1.9263,1.9294,1.9259,1.9314,1.9315,1.9304,1.9355,1.9358,1.9406,1.934,1.9341,1.9342,0,1.886,1.8897,1.8963,1.9007,1.9024,1.9056,1.91,1.9133,1.9172,1.9186,1.9217,1.9229,1.9274,1.926,1.9323,1.9299,1.9322,1.9339,1.9341,1.9349,1.9332,1.9366,1.9421,1.9429,1.9353,1.9352,1.9352,0,1.8882,1.8948,1.8997,1.9017,1.9068,1.9091,1.9114,1.9151,1.9178,1.9216,1.9234,1.9277,1.9301,1.9335,1.936,1.9347,1.9422,1.9408,1.9436,1.9435,1.9452,1.9451,1.9514,1.9464,1.9464,1.9464,1.9464,0,1.8931,1.8971,1.9008,1.9038,1.9084,1.9107,1.9152,1.9176,1.921,1.9245,1.9259,1.9292,1.9322,1.936,1.9379,1.9429,1.944,1.9453,1.9458,1.9453,1.9452,1.947,1.9468,1.9466,1.9466,1.9465,1.9465,0,1.8963,1.8989,1.9043,1.9088,1.91,1.9132,1.9171,1.9202,1.9223,1.9269,1.9281,1.9316,1.9361,1.9389,1.9446,1.9459,1.9516,1.9518,1.9502,1.9505,1.9531,1.9529,1.961,1.9622,1.9563,1.9563,1.9563,0,1.8993,1.9024,1.9073,1.9097,1.912,1.916,1.9187,1.9211,1.9239,1.9286,1.9311,1.9357,1.9396,1.9468,1.9499,1.9544,1.9549,1.9574,1.9556,1.955,1.9552,1.955,1.9554,1.9578,1.9578,1.9578,1.9579,0,1.9044,1.9056,1.9094,1.9137,1.9168,1.9204,1.9239,1.9258,1.9289,1.932,1.9366,1.9396,1.9455,1.9501,1.9548,1.9573,1.9582,1.9584,1.9593,1.9589,1.9579,1.9587,1.9513,1.9583,1.9582,1.9582,1.9582,1.9582,1.9078,1.9107,1.9145,1.9188,1.9217,1.9249,1.9281,1.9307,1.9345,1.9395,1.9407,1.9456,1.9496,1.956,1.9586,1.9626,1.9622,1.9635,1.9638,1.9642,1.9643,1.9571,1.9634,1.9634,1.9634,1.9634,1.9634,0,1.9131,1.9156,1.9195,1.9244,1.9278,1.9282,1.9321,1.9349,1.9392,1.9428,1.9466,1.952,1.9565,1.96,1.9647,1.9672,1.9677,1.9684,1.9683,1.9689,1.9643,1.9631,1.9679,1.9679,1.9679,1.9679,1.9678,1.9678,1.9162,1.9212,1.9229,1.9294,1.9319,1.9367,1.939,1.9421,1.9449,1.9509,1.9547,1.9569,1.9605,1.9655,1.9697,1.9706,1.9724,1.9729,1.974,1.9696,1.9692,1.9687,1.9677,1.9733,1.9733,1.9783,1.9783,1.9783]}]]